Location: Proctor
(47.8934°N, 114.3048°W)
Time: 20:48:11
(UTC+00:00)

Tiros 1 despin weight - Pass Details

Date: 02 July 2024
Orbit: 576 x 620 km, 48.2° (Epoch: 19 July)

Event Time Altitude Azimuth Distance (km) Brightness Sun altitude
Rises 17:39:03 0° 257° (WSW) 2,868 ? 55.2°
Reaches altitude 10° 17:41:20 10° 257° (WSW) 1,970 ? 55.5°
Maximum altitude 17:45:52 86° 172° (S) 625 ? 56.1°
Drops below altitude 10° 17:50:28 10° 82° (E) 1,988 ? 56.7°
Sets 17:52:47 0° 82° (E) 2,896 ? 57.0°
